Weather History for Sheridan, WY

Change the Weather History Date:

Saturday, January 14, 2012

  Actual Average Record
Temperature  
Mean Temperature 35 °F 24 °F  
Max Temperature 50 °F 36 °F 62 °F (1995)
Min Temperature 19 °F 11 °F -24 °F (1979)
Degree Days  
Heating Degree Days 30 41  
Month to date heating degree days 464 583  
Since 1 July heating degree days 3301 3766  
Cooling Degree Days 0 0  
Month to date cooling degree days 0 0  
Year to date cooling degree days 0 0  
Moisture  
Dew Point 19 °F    
Average Humidity 61    
Maximum Humidity 84    
Minimum Humidity 37    
Precipitation  
Precipitation 0.00 in 0.02 in 0.43 in (1953)
Month to date precipitation 0.07 0.23  
Year to date precipitation 0.07 0.23  
Sea Level Pressure  
Sea Level Pressure 29.93 in    
Wind  
Wind Speed 3 mph (North)    
Max Wind Speed 14 mph    
Max Gust Speed 20 mph    
Visibility 10 miles    
Events      
T = Trace of Precipitation, MM = Missing Value Source: NWS Daily Summary

Daily Weather History Graph

Daily Weather History Graph

Search for Another Location

Airport:

Trip Planner

Search our weather history database for the weather conditions in past years. The results will help you decide how hot, cold, wet, or windy it might be!

Date:

Astronomy

Jan. 14, 2012 Rise Set
Actual Time 7:42 AM MST 4:51 PM MST
Civil Twilight 7:09 AM MST 5:24 PM MST
Nautical Twilight 6:33 AM MST 6:00 PM MST
Astronomical Twilight 5:58 AM MST 6:35 PM MST
Moon 11:35 PM MST (1/14) 10:11 AM MST (1/14)
Length of Visible Light 10h 14m
Length of Day
9h 09m
Waning Gibbous, 68% of the Moon is Illuminated
Jan 14
Waning Gibbous
Jan 16
Last Quarter
Jan 23
New
Jan 30
First Quarter
Feb 7
Full

Hourly Weather History & Observations

Time (MST) Temp. Windchill Dew Point Humidity Pressure Visibility Wind Dir Wind Speed Gust Speed Precip Events Conditions
12:53 AM 24.1 °F 19.7 °F 17.1 °F 75% 30.13 in 10.0 mi SSW 3.5 mph - N/A   Clear
1:53 AM 23.0 °F - 17.1 °F 78% 30.12 in 10.0 mi Calm Calm - N/A   Clear
2:53 AM 19.9 °F - 12.9 °F 74% 30.14 in 10.0 mi Calm Calm - N/A   Clear
3:53 AM 19.9 °F - 12.9 °F 74% 30.14 in 10.0 mi Calm Calm - N/A   Clear
4:53 AM 21.0 °F - 16.0 °F 81% 30.12 in 10.0 mi Calm Calm - N/A   Scattered Clouds
5:53 AM 21.9 °F - 17.1 °F 82% 30.12 in 10.0 mi Calm Calm - N/A   Overcast
6:53 AM 23.0 °F - 17.1 °F 78% 30.10 in 10.0 mi Calm Calm - N/A   Scattered Clouds
7:53 AM 21.9 °F - 17.1 °F 82% 30.08 in 10.0 mi Calm Calm - N/A   Partly Cloudy
8:53 AM 28.9 °F 25.2 °F 21.0 °F 72% 30.05 in 10.0 mi NNE 3.5 mph - N/A   Scattered Clouds
9:53 AM 28.9 °F 23.9 °F 19.0 °F 67% 30.04 in 10.0 mi NNW 4.6 mph - N/A   Mostly Cloudy
10:53 AM 36.0 °F - 21.0 °F 55% 30.01 in 10.0 mi Calm Calm - N/A   Partly Cloudy
11:53 AM 37.0 °F 33.3 °F 21.0 °F 52% 29.95 in 10.0 mi NW 4.6 mph - N/A   Mostly Cloudy
12:53 PM 39.9 °F 37.8 °F 21.9 °F 49% 29.90 in 10.0 mi ESE 3.5 mph - N/A   Clear
1:53 PM 44.6 °F - 24.8 °F 46% 29.77 in 10.0 mi Calm Calm - N/A   Clear
2:53 PM 46.4 °F 45.2 °F 21.2 °F 37% 29.74 in 10.0 mi ESE 3.5 mph - N/A   Clear
3:53 PM 42.1 °F - 23.0 °F 47% 29.80 in 10.0 mi Calm Calm - N/A   Clear
4:53 PM 37.0 °F 31.0 °F 26.1 °F 65% 29.80 in 10.0 mi NNW 8.1 mph - N/A   Clear
5:53 PM 34.0 °F 28.8 °F 25.0 °F 70% 29.81 in 10.0 mi North 5.8 mph - N/A   Clear
6:53 PM 33.1 °F 28.7 °F 23.0 °F 66% 29.82 in 10.0 mi Variable 4.6 mph - N/A   Clear
7:53 PM 34.0 °F 29.8 °F 21.9 °F 61% 29.80 in 10.0 mi Variable 4.6 mph - N/A   Clear
8:53 PM 33.1 °F 26.9 °F 21.0 °F 61% 29.77 in 10.0 mi Variable 6.9 mph - N/A   Clear
9:53 PM 37.0 °F 33.3 °F 19.0 °F 48% 29.73 in 10.0 mi Variable 4.6 mph - N/A   Clear
10:53 PM 39.0 °F 36.8 °F 16.0 °F 39% 29.70 in 10.0 mi NW 3.5 mph - N/A   Clear
11:53 PM 39.9 °F 34.5 °F 14.0 °F 35% 29.68 in 10.0 mi North 8.1 mph - N/A   Clear